STARLINK-30506, 58072

Orbit data source: Space-Track

STARLINK-30506, 58072 is a payload satellite owned by SpaceX/Seattle (US) in LEO that was launched on Fri, 13 Oct 2023 UTC via an FALCON 9 launch vehicle from the Air Force Eastern Test Range (AFETR). Payload-class satellites include a variety of spacecraft equipped with specific instruments for various scientific and technological missions. These include communications satellites like Starlink; space stations such as the ISS; scientific satellites like the Hubble; Earth observation satellites from companies like Planet Labs, Umbra, and HawkEye 360; GPS; miniature CubeSats for education and research; and military/defense satellites.

Loading next visibility...
Identifier
58072, 2023-158X
Orbit
LEO
Country
Flag of USUS
Related business
Manufacturer
SpaceX/Seattle
Mission
Operational Commercial Communications
Bus & Motor
STARLINK V2M, Unknown motor
Mass
730 kg wet, ~700 kg dry
Launch date (UTC)
2023-10-13 (3 years ago)
Launch vehicle
FALCON 9
Launch site
Air Force Eastern Test Range (AFETR)
Object type
Payload
Rocket body
Debris
Shape & HBR
Box + 2 Pan, 17.7 m
Radar Cross Section
33.884 m², Large (>1 m²)

Expand to show TLE details & history
Last TLE update: 2 days ago

TLE from 2 days ago
0 STARLINK-30506
1 58072U 23158X   26171.38217560  .00000648  00000-0  33078-4 0  9993
2 58072  43.0034 167.2411 0001629 273.9857  86.0808 15.27581446149275
Epoch: 2026-06-20T09:10Z
TLE epoch observation values (Epoch: 2026-06-20T09:10:19.971Z)
Latitude
-0.00007°
Longitude
121.06022°
Altitude
482.744 km
Speed
7.626 km/s
True Right ascension
11h 08m 57s
True Declination
0° 00' 00"
Sunlit
Object was in daylight at epoch
Visualization orbit readout
Latitude
Unknown
Longitude
Unknown
Altitude
Unknown
Speed
Unknown
Apparent Right ascension
Unknown
Apparent Declination
Unknown
Sunlit
N/A
Visualization observer readout
Local Sidereal Time
21:29:20
Azimuth
Unknown
Elevation
Unknown
Doppler factor
Unknown
Orbital elements
Apogee altitude
486.107 km
Perigee altitude
483.871 km
Semi-major axis
6,863.126 km
Eccentricity
0.00016
Inclination
43.0034°
RAAN
167.2411°
Arg. of periapsis
273.9857°
True anomaly
86.09942°
Mean anomaly
86.0808°
Eccentric anomaly
86.09011°
Mean motion
3.81733 °/min
Orbital period
94.31 mins
BSTAR
0.000033078
Loading maneuver chart data...
Computing Atmospheric mass density...
Loading historical data...
Loading historical data...
Loading historical data...
Loading historical data...
Loading historical data...
Loading historical data...
Loading historical data...

Documentation

Showing up to 5 results
|